Paramount Helsinki — 2CWB3 — position and weather

sailwx.info

Track history (hours):
 
Tides and Currents Weather Stations Pressure Air Temp Water Temp Dewpoint Dewpoint Depression Visibility Wind Speed Wind Dir Waves Ship Positions

Paramount Helsinki

Last reported at 2016-Jul-28 00:33 UTC. Time now 2016-Jul-28 00:56 UTC.
Position N 29°50' W 090°00'.

Length 250 m; draft 12 m.

Type: Tanker. MMSI: 235076275.

Date/timePositionNaut miles runAvg speedWind from/ knotsBaromVisibWave heightAir tempDewpointWater temp
2016-Jul-28 00:33N 29°50' W 090°00'0 0.0
2016-Jul-27 23:33N 29°50' W 090°00'0 0.0
2016-Jul-27 22:33N 29°50' W 090°00'0 0.0
2016-Jul-27 21:33N 29°50' W 090°00'0 0.0
2016-Jul-27 20:33N 29°50' W 090°00'0 0.0
2016-Jul-27 18:24N 29°50' W 090°00'0 0.0
2016-Jul-27 17:33N 29°50' W 090°00'0 0.0
2016-Jul-27 16:30N 29°50' W 090°00'0 0.0
2016-Jul-27 15:33N 29°50' W 090°00'0 0.0
2016-Jul-27 14:33N 29°50' W 090°00'0 0.3
2016-Jul-27 13:33N 29°50' W 089°60'6 6.4
2016-Jul-27 12:34N 29°55' W 089°56'8 7.9
2016-Jul-27 11:33N 29°55' W 090°05'6 6.4
2016-Jul-27 10:33N 29°55' W 090°13'8 7.3
2016-Jul-27 09:24N 29°56' W 090°23'  
Track history (hours):
 
Tides and Currents Weather Stations Pressure Air Temp Water Temp Dewpoint Dewpoint Depression Visibility Wind Speed Wind Dir Waves Ship Positions

Paramount Helsinki

Last reported at 2016-Jul-28 00:33 UTC. Time now 2016-Jul-28 00:56 UTC.
Position N 29°50' W 090°00'.

Length 250 m; draft 12 m.

Type: Tanker. MMSI: 235076275.

Date/timePositionNaut miles runAvg speedWind from/ knotsBaromVisibWave heightAir tempDewpointWater temp
2016-Jul-28 00:33N 29°50' W 090°00'0 0.0
2016-Jul-27 23:33N 29°50' W 090°00'0 0.0
2016-Jul-27 22:33N 29°50' W 090°00'0 0.0
2016-Jul-27 21:33N 29°50' W 090°00'0 0.0
2016-Jul-27 20:33N 29°50' W 090°00'0 0.0
2016-Jul-27 18:24N 29°50' W 090°00'0 0.0
2016-Jul-27 17:33N 29°50' W 090°00'0 0.0
2016-Jul-27 16:30N 29°50' W 090°00'0 0.0
2016-Jul-27 15:33N 29°50' W 090°00'0 0.0
2016-Jul-27 14:33N 29°50' W 090°00'0 0.3
2016-Jul-27 13:33N 29°50' W 089°60'6 6.4
2016-Jul-27 12:34N 29°55' W 089°56'8 7.9
2016-Jul-27 11:33N 29°55' W 090°05'6 6.4
2016-Jul-27 10:33N 29°55' W 090°13'8 7.3
2016-Jul-27 09:24N 29°56' W 090°23'  

Dump ship's entire track history